Johnstown, PA

5:06 AM EDT on July 21, 2017 (GMT -0400)
Johnstown-Cambria County

Weather History for KJST - November, 2012

Change the Weather History Date:

Sunday, November 18, 2012

  Actual Average Record
Temperature  
Mean Temperature 38 °F 39 °F  
Max Temperature 46 °F 44 °F 77 °F (1921)
Min Temperature 30 °F 33 °F 9 °F (2014)
Degree Days  
Heating Degree Days 27 26  
Month to date heating degree days 412  
Since 1 July heating degree days 1105  
Cooling Degree Days 0 0  
Month to date cooling degree days 0  
Year to date cooling degree days 382  
Moisture  
Dew Point 27 °F    
Average Humidity 65    
Maximum Humidity 82    
Minimum Humidity 49    
Precipitation  
Precipitation 0.00 in 0.13 in 0.78 in (1986)
Month to date precipitation 2.15  
Year to date precipitation 29.50  
Sea Level Pressure  
Sea Level Pressure 30.55 in    
Wind  
Wind Speed 5 mph (SE)    
Max Wind Speed 15 mph    
Max Gust Speed -    
Visibility 10 miles    
Events      
T = Trace of Precipitation, MM = Missing Value Source: NWS Daily Summary

Daily Weather History Graph

Daily Weather History Graph

Search for Another Location

Airport or City:

Trip Planner

Search our weather history database for the weather conditions in past years. The results will help you decide how hot, cold, wet, or windy it might be!

Date:

Astronomy

Nov. 18, 2012 Rise Set
Actual Time 7:05 AM EST 4:55 PM EST
Civil Twilight 6:35 AM EST 5:25 PM EST
Nautical Twilight 6:02 AM EST 5:58 PM EST
Astronomical Twilight 5:30 AM EST 6:30 PM EST
Moon 11:30 AM EST (11/18) 10:13 PM EST (11/18)
Length of Visible Light 10h 49m
Length of Day
9h 50m
Waxing Crescent, 30% of the Moon is Illuminated
Nov 18
Waxing Crescent
Nov 20
First Quarter
Nov 28
Full
Dec 6
Last Quarter
Dec 13
New

Hourly Weather History & Observations

Time (EST) Temp. Windchill Dew Point Humidity Pressure Visibility Wind Dir Wind Speed Gust Speed Precip Events Conditions
12:54 AM 36.0 °F - 25.0 °F 64% 30.57 in 10.0 mi Calm Calm - N/A   Clear
1:54 AM 35.1 °F 30.1 °F 25.0 °F 67% 30.56 in 10.0 mi SE 5.8 mph - N/A   Clear
2:54 AM 36.0 °F - 25.0 °F 64% 30.57 in 10.0 mi Calm Calm - N/A   Clear
3:54 AM 32.0 °F 27.5 °F 25.0 °F 75% 30.57 in 10.0 mi ESE 4.6 mph - N/A   Clear
4:54 AM 32.0 °F 26.4 °F 25.0 °F 75% 30.57 in 10.0 mi East 5.8 mph - N/A   Clear
5:54 AM 30.9 °F 25.2 °F 25.0 °F 79% 30.58 in 10.0 mi ESE 5.8 mph - N/A   Clear
6:54 AM 32.0 °F 27.5 °F 25.0 °F 75% 30.59 in 10.0 mi SE 4.6 mph - N/A   Clear
7:54 AM 33.1 °F 26.9 °F 25.0 °F 72% 30.60 in 10.0 mi SE 6.9 mph - N/A   Clear
8:54 AM 37.0 °F 31.0 °F 27.0 °F 67% 30.59 in 10.0 mi SE 8.1 mph - N/A   Clear
9:54 AM 39.9 °F 31.8 °F 28.9 °F 65% 30.58 in 10.0 mi SSE 15.0 mph - N/A   Clear
10:54 AM 43.0 °F 37.2 °F 28.0 °F 56% 30.58 in 10.0 mi SSE 10.4 mph - N/A   Clear
11:54 AM 44.1 °F 39.0 °F 28.0 °F 53% 30.56 in 10.0 mi SE 9.2 mph - N/A   Clear
12:54 PM 45.0 °F 39.7 °F 27.0 °F 49% 30.53 in 10.0 mi SSE 10.4 mph - N/A   Clear
1:54 PM 46.0 °F 39.9 °F 28.0 °F 50% 30.52 in 10.0 mi SSE 13.8 mph - N/A   Clear
3:54 PM 45.0 °F 40.1 °F 27.0 °F 49% 30.51 in 10.0 mi SE 9.2 mph - N/A   Clear
4:54 PM 42.1 °F 36.6 °F 28.0 °F 58% 30.52 in 10.0 mi SE 9.2 mph - N/A   Clear
5:54 PM 39.9 °F - 27.0 °F 60% 30.53 in 10.0 mi Calm Calm - N/A   Clear
6:54 PM 37.9 °F 34.4 °F 26.1 °F 62% 30.55 in 10.0 mi SE 4.6 mph - N/A   Clear
7:54 PM 36.0 °F 32.1 °F 26.1 °F 67% 30.55 in 10.0 mi SSE 4.6 mph - N/A   Clear
8:54 PM 36.0 °F 31.1 °F 26.1 °F 67% 30.53 in 10.0 mi SSE 5.8 mph - N/A   Clear
9:54 PM 35.1 °F 30.1 °F 27.0 °F 72% 30.52 in 10.0 mi SE 5.8 mph - N/A   Clear
10:54 PM 34.0 °F 28.0 °F 28.9 °F 82% 30.51 in 8.0 mi SSE 6.9 mph - N/A   Clear